Hourly Data Report for December 29, 2016

CARBERRY CS
MANITOBA

49°54'20.900" N
99°21'26.800" W
383.50 m
5010547
71170
WZE

Download Data

Hourly Data (December 2016)
Hourly Data Report for December 29, 2016
TIME
LST
Temp Definition
°C
Dew Point Definition
°C
Rel Hum Definition
%
Precip. Amount Definition
mm

Wind Dir Definition
10's deg

Wind Spd Definition
km/h
Visibility Definition
km
Stn Press Definition
kPa
Hmdx Definition


Wind Chill Definition


Weather Definition


00:00 -3.8 -6.6 81 0.0 27 31   96.11   -12 LegendNANA
01:00 -3.5 -6.9 78 0.0 29 30   96.12   -11 LegendNANA
02:00 -5.0 -8.6 76 0.0 29 35   96.27   -14 LegendNANA
03:00 -6.3 -10.0 75 0.0 29 26   96.41   -14 LegendNANA
04:00 -6.9 -10.3 77 0.0 29 24   96.47   -15 LegendNANA
05:00 -6.9 -10.1 78 0.0 29 31   96.55   -16 LegendNANA
06:00 -6.9 -10.1 77 0.0 29 37   96.63   -16 LegendNANA
07:00 -6.8 -10.1 77 0.0 29 35   96.70   -16 LegendNANA
08:00 -7.7 -10.8 79 0.0 29 34   96.75   -17 LegendNANA
09:00 -7.9 -11.5 76 0.0 28 30   96.81   -17 LegendNANA
10:00 -7.6 -11.6 73 0.0 28 31   96.88   -17 LegendNANA
11:00 -7.3 -11.5 71 0.0 29 39   96.95   -17 LegendNANA
12:00 -7.1 -12.3 66 0.0 30 33   97.03   -16 LegendNANA
13:00 -7.1 -12.2 67 0.0 30 27   97.06   -15 LegendNANA
14:00 -7.1 -12.3 66 0.0 29 29   97.09   -16 LegendNANA
15:00 -7.3 -12.8 65 0.0 28 22   97.14   -15 LegendNANA
16:00 -8.1 -13.7 64 0.0 29 12   97.20   -14 LegendNANA
17:00 -8.6 -13.7 67 0.0 29 19   97.19   -16 LegendNANA
18:00 -9.5 -13.4 73 0.0 29 19   97.24   -17 LegendNANA
19:00 -10.8 -13.9 78 0.0 28 16   97.26   -18 LegendNANA
20:00 -12.2 -15.8 75 0.0 29 12   97.25   -19 LegendNANA
21:00 -13.9 -16.2 83 0.0 29 14   97.24   -21 LegendNANA
22:00 -14.7 -16.7 85 0.0 30 10   97.17   -21 LegendNANA
23:00 -15.2 -16.7 88 0.0 27 3   97.12   -17 LegendNANA

Notes on Data Quality.

Legend

  • E = Estimated
  • M = Missing
  • NA = Not Available*
  • [empty] = Indicates an unobserved value
Date modified: